Location: Branche des Alpilles
(43.6087°N, 4.6976°E)
Time: 05:00:20
(UTC+00:00)

YAOGAN 1 - Pass Details

Date: 30 November 2020
Orbit: 618 x 620 km, 97.9° (Epoch: 24 January)

Event Time Altitude Azimuth Distance (km) Brightness Sun altitude
Rises 18:20:53 0° 166° (SSE) 2,881 5.9 -23.8°
Enters shadow 18:21:35 - 166° (SSE) 2,586 5.7 -23.9°
Exits shadow 18:29:04 37° 345° (NNW) 971 3.5 -25.3°
Drops below altitude 10° 18:31:43 10° 347° (NNW) 1,997 5.2 -25.8°
Sets 18:33:55 0° 347° (NNW) 2,908 6.1 -26.2°
